Simultaneous Nadir Overpasses (SNOs) Predictions

Prediction of SNOs near equator between AQUA and NPP Satellite Orbit:

Table of predicted SNOs near equator for the next 14.0 days since TLE Epoch: 10/3/2014
Index Date (AQUA) Time (AQUA) AQUA Lat,Lon Date (NPP) Time (NPP) NPP Lat,Lon Distance(km) Time Diff (sec)
1 10/04/2014 12:25:28 29.96, 12.78 10/04/2014 12:18:22 30.16, 13.69 89.73 426
2 10/04/2014 13:14:51 -29.99,-179.57 10/04/2014 13:09:02 -30.10,-178.97 59.16 349
3 10/04/2014 14:04:21 29.96, -11.94 10/04/2014 13:59:50 30.04, -11.65 28.58 271
4 10/04/2014 14:53:09 -27.89, 156.25 10/04/2014 14:49:54 -27.89, 156.26 0.87 195
5 10/04/2014 15:35:43 2.75, -30.43 10/04/2014 15:33:35 2.76, -30.43 0.62 128
6 10/04/2014 16:17:44 23.88, 143.10 10/04/2014 16:16:42 23.88, 143.09 1.09 62
7 10/04/2014 17:05:34 -29.92, -47.76 10/04/2014 17:05:47 -29.96, -48.00 23.61 13
8 10/04/2014 17:54:57 29.90, 119.89 10/04/2014 17:56:27 30.02, 119.35 54.25 90
9 10/04/2014 18:44:27 -29.92, -72.48 10/04/2014 18:47:15 -30.08, -73.34 84.88 168
10 10/07/2014 04:41:54 29.99, 128.67 10/07/2014 04:35:22 30.17, 129.44 76.83 392
11 10/07/2014 05:31:16 -29.96, -63.66 10/07/2014 05:26:01 -30.05, -63.20 46.36 315
12 10/07/2014 06:20:47 29.99, 103.95 10/07/2014 06:16:50 30.05, 104.10 15.76 237
13 10/07/2014 07:06:57 -18.42, -85.58 10/07/2014 07:04:12 -18.42, -85.58 0.22 165
14 10/07/2014 07:48:55 -8.93, 87.96 10/07/2014 07:47:16 -8.93, 87.95 0.82 99
15 10/07/2014 08:32:58 28.18, -99.94 10/07/2014 08:32:28 28.20,-100.02 8.33 30
16 10/07/2014 09:22:00 -29.88, 68.13 10/07/2014 09:22:47 -29.95, 67.76 36.55 47
17 10/07/2014 10:11:22 29.92,-124.21 10/07/2014 10:13:26 30.07,-124.88 67.07 124
18 10/07/2014 11:00:53 -29.88, 43.41 10/07/2014 11:04:15 -30.07, 42.41 97.83 202
19 10/09/2014 20:08:47 -29.98, 76.95 10/09/2014 20:01:32 -30.18, 77.90 94.35 435
20 10/09/2014 20:58:17 29.96,-115.42 10/09/2014 20:52:20 30.12,-114.79 63.78 357
21 10/09/2014 21:47:40 -29.98, 52.23 10/09/2014 21:43:00 -30.06, 52.56 33.15 280
22 10/09/2014 22:37:02 29.48,-140.02 10/09/2014 22:33:39 29.48,-139.98 3.45 203
23 10/09/2014 23:20:13 -7.10, 32.81 10/09/2014 23:17:58 -7.10, 32.81 0.71 135
24 10/10/2014 00:02:11 -20.24,-153.62 10/10/2014 00:01:02 -20.24,-153.63 1.04 69
25 10/10/2014 00:48:53 29.89, 16.40 10/10/2014 00:48:57 29.94, 16.21 19.06 4
26 10/10/2014 01:38:23 -29.91,-175.97 10/10/2014 01:39:45 -30.00,-176.47 49.75 82
27 10/10/2014 02:27:46 29.89, -8.32 10/10/2014 02:30:25 30.06, -9.13 80.35 159
28 10/12/2014 12:25:10 -29.95,-167.14 10/12/2014 12:18:31 -30.14,-166.33 80.99 399
29 10/12/2014 13:14:41 29.99, 0.47 10/12/2014 13:09:19 30.09, 0.98 50.17 322
30 10/12/2014 14:04:03 -29.95, 168.14 10/12/2014 13:59:58 -29.97, 168.34 19.84 245
31 10/12/2014 14:50:59 20.66, -21.95 10/12/2014 14:48:08 20.66, -21.94 1.18 171
32 10/12/2014 15:33:00 5.98, 151.51 10/12/2014 15:31:15 5.98, 151.51 0.13 105
33 10/12/2014 16:16:30 -27.73, -35.91 10/12/2014 16:15:53 -27.76, -35.95 5.64 37
34 10/12/2014 17:05:16 29.92, 132.31 10/12/2014 17:05:56 29.97, 131.98 32.57 40
35 10/12/2014 17:54:47 -29.88, -60.07 10/12/2014 17:56:44 -30.03, -60.70 63.34 117
36 10/12/2014 18:44:09 29.91, 107.59 10/12/2014 18:47:24 30.09, 106.64 93.85 195
37 10/15/2014 03:52:10 29.95, 141.11 10/15/2014 03:44:50 30.18, 142.09 97.66 440
38 10/15/2014 04:41:33 -29.97, -51.24 10/15/2014 04:35:30 -30.11, -50.56 67.06 363
39 10/15/2014 05:31:03 29.96, 116.39 10/15/2014 05:26:18 30.06, 116.75 36.50 285
40 10/15/2014 06:20:26 -29.98, -75.96 10/15/2014 06:16:58 -30.00, -75.91 5.89 208
41 10/15/2014 07:04:24 9.95, 96.35 10/15/2014 07:02:05 9.95, 96.35 0.66 139
42 10/15/2014 07:45:52 18.69, -89.79 10/15/2014 07:44:38 18.69, -89.78 0.72 74
43 10/15/2014 08:32:16 -29.92, 80.57 10/15/2014 08:32:15 -29.95, 80.40 15.81 1
44 10/15/2014 09:21:39 29.89,-111.79 10/15/2014 09:22:55 30.00,-112.25 46.47 76
45 10/15/2014 10:11:09 -29.91, 55.84 10/15/2014 10:13:43 -30.06, 55.06 77.12 154




NCC Satellite Simultaneous Nadir Overpasses (SNOs) Prediction Service
